Tracking 20083 objects as of 9-Dec-2019
HD Live streaming from Space Station
objects crossing your sky now

FENGYUN 1C DEB

Track FENGYUN 1C DEB now!
10-day predictions


NORAD ID: 35243
Int'l Code: 1999-025DRB
Perigee: 647.6 km
Apogee: 826.9 km
Inclination: 98.9 °
Period: 99.4 minutes
Semi major axis: 7108 km
RCS: 0.0017 m2 (small)
Launch date: May 10, 1999
Source: People's Republic of China (PRC)
Launch site: Taiyaun Space Center, China (TSC)

Note: This is SATELLITE DEBRIS
aabbcc
Your satellite tracking list
Your tracking list is empty




NASA's NSSDC Master Catalog

Two Line Element Set (TLE):
1 35243U 99025DRB 19342.93328133 +.00000700 +00000-0 +18132-3 0  9998
2 35243 098.8862 234.3263 0126180 114.3855 247.0566 14.48633581589968
Source of the keplerian elements: AFSPC